Location: Stillwell
(40.4602°N, 82.0928°W)
Time: 20:45:57
(UTC-04:00)

Cosmos 2322 Rocket - Pass Details

Date: 25 May 2018
Orbit: 834 x 849 km, 71.0° (Epoch: 24 June)

Event Time Altitude Azimuth Distance (km) Brightness Sun altitude
Rises 22:14:00 0° 333° (NNW) 3,391 6.8 -14.0°
Reaches altitude 10° 22:16:27 10° 331° (NNW) 2,452 5.9 -14.4°
Maximum altitude 22:22:00 65° 251° (WSW) 916 2.5 -15.1°
Enters shadow 22:26:16 17° 173° (S) 1,971 3.6 -15.7°
